Probability
0 0 0 0 0 0 0 0 0 0 0 0 0 0 0 0 0 0 0 0 0 0 0 0 0 0 0 0 0 0 0 0 0 0 0 0 0 0
1 1 1 0 0 0 0 0 0 0 0 0 0 0 0 0 0 0 0 0 0 0 0 0 0 0 0 0 0 0 0 0 0 0 0 0 0 0
2 2 2 1 0 0 0 0 0 0 0 0 0 0 0 0 0 0 0 0 0 0 0 0 0 0 0 0 0 0 0 0 0 0 0 0 0 0
2 2 2 1 0 0 0 0 0 0 0 0 0 0 0 0 0 0 0 0 0 0 0 0 0 0 0 0 0 0 0 0 0 0 0 0 0 0
1 1 1 1 0 0 0 0 0 0 0 0 0 0 0 0 0 0 0 0 0 0 0 0 0 0 0 0 0 0 0 0 0 0 0 0 0 0
0 0 0 0 0 0 0 0 0 0 0 0 0 0 0 0 0 0 0 0 0 0 0 0 0 0 0 0 0 0 0 0 0 0 0 0 0 0
0 0 0 0 0 0 0 0 0 0 0 0 0 0 0 0 0 0 0 0 0 0 0 0 0 0 0 0 0 0 0 0 0 0 0 0 0 0
0 0 0 0 0 0 0 0 0 0 0 0 0 0 0 0 0 0 0 0 0 0 0 0 0 0 0 0 0 0 0 0 0 0 0 0 0 0
0 0 0 0 0 0 0 0 0 0 0 0 0 0 0 0 0 0 0 0 0 0 0 0 0 0 0 0 0 0 0 0 0 0 0 0 0 0
0 0 0 0 0 0 0 0 0 0 0 0 0 0 0 0 0 0 0 0 0 0 0 0 0 0 0 0 0 0 0 0 0 0 0 0 0 0
0 0 0 0 0 0 0 0 0 0 0 0 0 0 0 0 0 0 0 0 0 0 0 0 0 0 0 0 0 0 0 0 0 0 0 0 0 0
1 0 0 0 0 0 0 0 0 0 0 0 0 0 0 0 0 0 0 0 0 0 0 0 0 0 0 0 0 0 0 0 0 0 0 0 0 0
1 0 0 0 0 0 0 0 0 0 0 0 0 0 0 0 1 1 0 0 0 0 0 0 0 0 0 0 0 0 0 0 0 0 0 0 0 0
1 0 0 0 0 0 0 0 0 0 0 0 0 0 0 1 2 2 1 0 0 0 0 0 0 0 0 0 0 0 0 0 0 0 0 0 0 0
0 0 0 0 0 0 0 0 0 0 0 0 0 0 0 1 2 3 2 1 0 0 0 0 0 0 0 0 0 0 0 0 0 0 0 0 0 0
0 0 0 0 0 0 0 0 0 0 0 0 0 0 0 1 3 3 2 1 0 0 0 0 0 0 0 0 0 0 0 0 0 0 0 0 0 0
0 0 0 0 0 0 0 0 0 0 0 0 0 0 1 2 3 3 2 1 0 0 0 0 0 0 0 0 0 0 0 0 0 0 0 0 0 0
0 0 0 0 0 0 0 0 0 0 0 0 0 0 1 2 2 3 2 1 0 0 0 0 0 0 0 0 0 0 0 0 0 0 0 0 0 0
0 0 0 0 0 0 0 0 0 0 0 0 0 0 0 1 1 1 1 1 0 0 0 0 0 0 0 0 0 0 0 0 0 0 0 0 0 0
0 0 0 0 0 0 0 0 0 0 0 0 0 0 0 0 0 0 0 0 0 0 0 0 0 0 0 0 0 0 0 0 0 0 0 0 0 0
0 0 0 0 0 0 0 0 0 0 0 0 0 0 0 0 0 0 0 0 0 0 0 0 0 0 0 0 0 0 0 0 0 0 0 0 0 0
0 0 0 0 0 0 0 0 0 0 0 0 0 0 0 0 0 0 0 0 0 0 0 0 0 0 0 0 0 0 0 0 0 0 0 0 0 0
0 0 0 0 0 0 0 0 0 0 0 0 0 0 0 0 0 0 0 0 0 0 0 0 0 0 0 0 0 0 0 0 0 0 0 0 0 0
Wind_Speed
1 1 1 1 1 1 1 2 2 2 2 3 2 2 2 2 2 1 3 7 6 5 6 6 6 6 6 6 6 6 7 7 7 7 8 8 8 8
1 1 1 1 1 1 1 1 1 1 1 3 2 3 2 2 2 1 3 6 5 4 4 4 4 4 5 4 5 5 5 5 5 6 6 7 7 7
2 2 2 2 2 2 1 1 1 1 2 3 3 3 3 2 3 1 1 1 3 4 3 2 3 3 3 3 3 3 4 4 4 5 5 5 6 7
2 2 2 2 2 1 1 2 1 1 2 3 3 3 3 2 2 2 1 1 1 4 2 1 1 2 2 2 2 2 3 3 3 4 4 5 5 6
2 2 2 2 2 2 1 1 2 2 2 3 3 2 2 2 2 2 2 1 1 3 3 3 1 0 1 1 2 2 2 2 3 3 4 4 5 5
2 2 2 2 2 3 2 2 2 2 3 3 3 3 2 2 2 2 2 2 2 2 2 2 3 3 2 1 1 1 2 2 3 3 3 4 4 5
3 2 2 2 2 1 0 1 2 2 3 3 3 3 3 3 3 2 2 2 2 2 2 2 2 2 3 3 3 2 2 3 3 3 3 3 4 5
3 3 3 4 4 3 1 1 1 1 2 3 3 3 3 3 2 3 3 3 2 1 3 3 2 2 2 1 0 1 2 3 3 3 4 4 4 6
4 4 3 3 4 4 5 5 3 1 2 3 3 2 3 2 3 4 3 3 3 1 3 3 2 3 2 1 1 2 3 3 4 4 5 5 6 7
4 4 4 5 4 4 3 4 3 3 3 3 3 2 2 2 3 4 4 4 4 2 2 4 3 3 2 2 3 3 4 4 5 5 6 6 7 8
4 4 4 4 4 4 4 4 4 3 2 1 2 1 1 1 2 3 3 4 4 2 2 3 3 4 3 3 2 5 5 5 5 6 6 7 8 9
4 4 4 4 5 6 6 5 4 4 3 4 4 4 4 4 5 5 3 4 3 2 2 3 3 3 3 2 2 2 3 5 6 6 7 7 7 7
4 4 4 6 6 6 6 5 3 3 3 3 2 2 3 3 3 4 3 3 4 3 1 2 3 3 4 4 3 3 3 3 4 5 6 7 7 7
4 4 3 7 7 6 5 3 3 4 3 3 3 3 3 3 3 3 4 4 3 4 2 2 3 3 4 5 4 3 3 4 4 4 4 5 8 10
3 2 3 5 6 5 5 5 6 4 4 4 3 3 2 2 2 2 3 3 4 3 3 4 4 4 5 5 5 5 5 4 4 5 5 5 5 5
4 4 5 5 5 4 5 6 5 4 4 4 3 2 2 2 3 3 3 3 3 3 3 4 4 5 5 6 6 6 5 5 4 5 6 6 6 5
4 4 4 4 4 4 4 4 4 4 4 4 3 3 3 3 3 3 3 3 3 3 3 2 3 4 5 6 6 6 6 6 5 5 6 6 6 5
4 4 4 4 5 5 4 4 4 4 4 4 3 3 3 3 3 3 3 3 4 3 3 3 2 3 4 4 5 7 6 6 6 6 6 7 7 6
5 5 4 4 4 4 4 3 3 3 3 3 4 4 4 4 3 3 3 3 4 4 3 3 3 4 5 6 4 5 6 6 6 6 6 6 8 7
5 5 5 4 4 4 4 3 3 3 3 3 3 4 4 4 4 4 4 4 4 4 4 3 4 4 5 6 6 4 5 6 6 7 7 7 7 7
5 5 4 4 4 4 3 3 3 3 3 3 3 3 3 3 3 3 3 4 4 4 5 4 3 4 5 4 5 5 4 6 7 7 7 7 7 7
5 5 4 4 4 4 4 4 4 4 4 4 3 3 3 3 4 4 4 3 4 4 5 4 3 3 4 5 7 7 7 5 6 9 10 8 7 7
5 5 5 4 4 4 4 5 5 4 4 4 4 3 3 3 3 3 4 4 4 4 4 4 4 4 5 5 6 7 8 8 6 5 5 7 10 12
Wind_Direction
121 123 121 115 140 159 183 223 242 188 147 138 140 111 94 73 64 107 96 87 76 68 62 56 53 48 47 49 46 41 39 36 34 32 32 27 24 27
73 115 110 116 112 141 181 224 267 263 124 125 141 139 123 122 100 79 82 99 86 77 68 61 55 49 49 47 43 38 36 33 30 26 26 22 20 18
136 119 114 116 138 137 147 158 162 160 149 132 138 147 157 163 139 141 125 143 115 107 85 66 55 48 46 39 34 30 27 23 20 16 16 14 12 10
137 136 130 124 134 143 155 153 142 164 175 157 158 167 175 171 175 183 188 169 138 116 125 91 54 39 37 25 17 12 7 7 5 5 4 359 359 1
165 157 152 153 155 136 161 158 145 145 165 174 161 162 188 190 194 202 203 213 218 154 165 183 186 237 344 354 356 353 349 349 348 346 344 344 347 352
173 173 171 170 169 148 156 157 154 154 163 176 175 179 189 197 216 217 211 201 227 216 191 197 185 198 214 258 309 324 322 319 318 321 330 338 343 342
183 182 151 90 50 68 103 158 167 177 179 187 190 191 196 200 219 226 233 236 225 233 239 225 215 223 208 211 237 281 290 296 302 306 312 317 320 322
189 184 163 169 152 149 115 25 343 234 212 206 210 214 218 214 223 237 236 242 239 211 251 248 240 249 252 254 114 237 263 276 282 284 287 292 297 302
200 193 179 168 185 180 165 173 185 252 285 270 235 239 243 229 226 233 240 253 266 271 259 254 243 252 251 234 141 217 252 267 276 281 283 285 290 295
211 210 203 197 197 206 197 195 200 195 209 232 246 257 269 255 239 250 255 254 252 237 253 264 260 261 258 248 170 213 245 256 267 277 282 286 289 289
212 214 217 211 162 192 211 211 215 205 170 206 334 334 358 315 275 242 235 240 248 231 224 266 275 273 256 245 200 195 224 241 259 271 279 285 290 284
211 208 212 220 175 193 215 217 222 224 213 195 203 213 222 206 220 237 243 245 255 245 197 244 266 277 268 236 250 237 232 230 238 249 265 277 291 283
214 212 196 181 191 205 231 235 234 247 235 230 226 226 223 214 210 219 233 252 257 256 248 241 264 265 273 282 272 262 268 270 255 247 245 250 261 267
227 221 188 171 190 208 223 211 204 228 231 224 222 228 230 223 218 217 223 232 251 267 267 258 270 277 278 279 281 276 270 273 274 276 275 249 239 237
227 201 172 173 192 206 205 201 209 220 222 225 229 234 235 230 223 217 219 223 240 245 253 250 255 265 268 275 284 286 286 282 275 278 279 278 276 269
212 177 176 186 208 211 199 203 215 219 223 226 231 229 219 214 218 222 224 225 238 246 246 250 254 260 265 271 274 279 281 281 283 280 280 279 277 274
198 191 191 194 205 208 210 211 209 206 214 220 222 224 226 227 226 225 233 238 245 254 253 243 248 253 264 273 273 274 278 280 283 288 286 283 279 275
194 205 206 211 216 217 214 212 212 213 216 216 216 221 225 228 227 224 227 239 249 255 261 264 259 261 260 252 244 273 281 286 290 287 282 282 283 283
206 214 215 218 221 221 219 216 217 215 218 219 217 221 226 228 229 230 232 241 249 257 262 265 261 264 272 281 253 223 274 287 290 286 282 282 285 291
219 220 219 219 220 221 219 217 216 213 217 221 223 222 223 228 232 234 236 244 253 258 260 256 256 262 270 282 290 282 235 271 284 286 289 288 286 283
217 220 219 217 216 218 221 220 216 215 220 224 226 229 229 230 238 243 244 247 257 262 265 268 270 257 269 277 279 282 277 236 257 276 288 290 293 289
214 216 216 217 215 214 215 215 217 219 221 224 226 227 231 236 238 241 244 248 254 262 270 277 271 257 258 266 277 287 293 290 251 246 256 269 287 292
212 212 213 212 213 213 213 214 217 219 221 224 226 229 233 240 247 246 248 253 261 269 274 276 272 266 266 269 277 283 290 296 295 287 275 251 253 268